Weather History for KC75 - January, 2014

Change the Weather History Date:

Sunday, January 26, 2014

  Actual Average (KPIA) Record (KPIA)
Temperature  
Mean Temperature 22 °F 25 °F  
Max Temperature 40 °F 33 °F 60 °F (2002)
Min Temperature 4 °F 17 °F -11 °F (1936)
Degree Days  
Heating Degree Days 43 40  
Month to date heating degree days 1040  
Since 1 July heating degree days 3318  
Cooling Degree Days 0 0  
Month to date cooling degree days 0  
Year to date cooling degree days 0  
Moisture  
Dew Point 16 °F    
Average Humidity 68    
Maximum Humidity 92    
Minimum Humidity 56    
Precipitation  
Precipitation 0.00 in 0.05 in 1.02 in (1974)
Month to date precipitation 1.52  
Year to date precipitation 1.52  
Snow  
Snow 0.00 in 0.20 in 7.60 in (1967)
Month to date snowfall 5.8  
Since 1 July snowfall 14.0  
Snow Depth -    
Sea Level Pressure  
Sea Level Pressure 29.60 in    
Wind  
Wind Speed 11 mph (WSW)    
Max Wind Speed 31 mph    
Max Gust Speed 56 mph    
Visibility 8 miles    
Events Rain , Snow    
T = Trace of Precipitation, MM = Missing Value Source: NWS Daily Summary

Daily Weather History Graph

Daily Weather History Graph

Search for Another Location

Airport or City:

Trip Planner

Search our weather history database for the weather conditions in past years. The results will help you decide how hot, cold, wet, or windy it might be!

Date:

Astronomy

Jan. 26, 2014 Rise Set
Actual Time 7:13 AM CST 5:07 PM CST
Civil Twilight 6:44 AM CST 5:36 PM CST
Nautical Twilight 6:10 AM CST 6:09 PM CST
Astronomical Twilight 5:38 AM CST 6:42 PM CST
Moon 2:50 AM CST (1/26) 12:56 PM CST (1/26)
Length of Visible Light 10h 52m
Length of Day
9h 53m
Waning Crescent, 23% of the Moon is Illuminated
Jan 26
Waning Crescent
Jan 30
New
Feb 6
First Quarter
Feb 14
Full
Feb 22
Last Quarter

Hourly Weather History & Observations

Time (CST) Temp. Windchill Dew Point Humidity Pressure Visibility Wind Dir Wind Speed Gust Speed Precip Events Conditions
12:15 AM 13.1 °F 4.0 °F 2.7 °F 63% 29.81 in 10.0 mi SSE 5.8 mph - N/A   Overcast
12:35 AM 13.1 °F 4.0 °F 3.0 °F 64% 29.78 in 10.0 mi South 5.8 mph - N/A   Overcast
12:55 AM 13.6 °F 3.5 °F 2.8 °F 62% 29.75 in 10.0 mi SSE 6.9 mph - N/A   Overcast
1:15 AM 14.0 °F 2.0 °F 3.6 °F 63% 29.71 in 10.0 mi SE 9.2 mph - N/A   Overcast
1:35 AM 14.7 °F 2.1 °F 4.3 °F 63% 29.70 in 10.0 mi SSE 10.4 mph - N/A   Overcast
1:55 AM 14.9 °F 4.0 °F 4.6 °F 64% 29.69 in 10.0 mi South 8.1 mph - N/A   Overcast
2:15 AM 14.5 °F 3.6 °F 6.6 °F 71% 29.66 in 2.0 mi South 8.1 mph - N/A Snow Light Snow
2:35 AM 14.0 °F 2.9 °F 9.3 °F 82% 29.64 in 1.8 mi South 8.1 mph - N/A Snow Light Snow
2:55 AM 14.0 °F 0.5 °F 9.5 °F 82% 29.62 in 5.0 mi SSE 11.5 mph - N/A Snow Light Snow
3:15 AM 14.9 °F 4.0 °F 8.2 °F 75% 29.60 in 10.0 mi SE 8.1 mph - N/A   Overcast
3:35 AM 15.8 °F 5.1 °F 6.4 °F 67% 29.60 in 10.0 mi SSE 8.1 mph - N/A   Overcast
3:55 AM 16.0 °F 5.3 °F 5.9 °F 65% 29.56 in 7.0 mi SE 8.1 mph - N/A Snow Light Snow
4:15 AM 16.2 °F 3.9 °F 6.8 °F 67% 29.53 in 7.0 mi SSE 10.4 mph - N/A Snow Light Snow
4:35 AM 16.7 °F 5.3 °F 7.2 °F 66% 29.53 in 7.0 mi SSE 9.2 mph - N/A Snow Light Snow
4:55 AM 17.4 °F 5.4 °F 6.8 °F 63% 29.52 in 10.0 mi SSE 10.4 mph - N/A Snow Light Snow
5:15 AM 18.1 °F 2.9 °F 7.5 °F 63% 29.49 in 10.0 mi SSE 17.3 mph - N/A   Overcast
5:35 AM 19.4 °F 8.6 °F 8.1 °F 61% 29.47 in 10.0 mi South 9.2 mph 17.3 mph N/A   Overcast
5:55 AM 20.3 °F 9.8 °F 9.0 °F 62% 29.47 in 10.0 mi South 9.2 mph 17.3 mph N/A   Overcast
6:15 AM 21.6 °F 9.9 °F 10.0 °F 61% 29.45 in 10.0 mi South 11.5 mph - N/A   Overcast
6:35 AM 23.4 °F 12.2 °F 10.8 °F 59% 29.45 in 10.0 mi South 11.5 mph - N/A   Overcast
6:55 AM 23.9 °F 14.2 °F 12.0 °F 61% 29.44 in 10.0 mi SSW 9.2 mph - N/A   Overcast
7:15 AM 24.8 °F 16.9 °F 13.1 °F 61% 29.45 in 10.0 mi SW 6.9 mph 17.3 mph N/A   Overcast
7:35 AM 25.9 °F 16.6 °F 14.7 °F 63% 29.45 in 10.0 mi SW 9.2 mph - N/A   Overcast
7:55 AM 27.5 °F 18.6 °F 16.5 °F 63% 29.44 in 10.0 mi SW 9.2 mph - N/A   Overcast
8:15 AM 29.1 °F 22.1 °F 18.0 °F 63% 29.45 in 10.0 mi SW 6.9 mph - N/A   Scattered Clouds
8:35 AM 32.7 °F 25.7 °F 23.0 °F 67% 29.44 in 10.0 mi WSW 8.1 mph - N/A   Clear
8:55 AM 35.1 °F 28.6 °F 25.5 °F 68% 29.45 in 10.0 mi West 8.1 mph - N/A   Clear
9:15 AM 35.6 °F 28.0 °F 27.0 °F 71% 29.45 in 10.0 mi West 10.4 mph 18.4 mph N/A   Clear
9:35 AM 36.5 °F 27.4 °F 27.1 °F 69% 29.48 in 10.0 mi West 15.0 mph 20.7 mph N/A   Scattered Clouds
9:55 AM 36.1 °F 26.9 °F 27.3 °F 70% 29.50 in 10.0 mi WNW 15.0 mph 29.9 mph N/A   Overcast
10:15 AM 35.6 °F 24.8 °F 26.6 °F 70% 29.52 in 10.0 mi West 19.6 mph 28.8 mph N/A   Overcast
10:35 AM 34.9 °F 26.2 °F 27.1 °F 73% 29.53 in 10.0 mi WNW 12.7 mph 24.2 mph N/A   Overcast
10:55 AM 33.8 °F 23.5 °F 26.6 °F 75% 29.53 in 10.0 mi WNW 16.1 mph 24.2 mph N/A   Overcast
11:15 AM 33.6 °F 25.0 °F 26.6 °F 75% 29.54 in 10.0 mi WNW 11.5 mph 20.7 mph N/A   Overcast
11:35 AM 33.4 °F 25.4 °F 26.6 °F 76% 29.53 in 10.0 mi WNW 10.4 mph 16.1 mph N/A   Overcast
11:55 AM 33.4 °F 24.3 °F 27.0 °F 77% 29.52 in 10.0 mi WNW 12.7 mph 18.4 mph N/A   Overcast
12:15 PM 33.8 °F 22.2 °F 25.9 °F 73% 29.51 in 10.0 mi WNW 20.7 mph 27.6 mph N/A   Overcast
12:35 PM 34.0 °F 26.6 °F 26.8 °F 75% 29.50 in 10.0 mi West 9.2 mph 17.3 mph N/A   Mostly Cloudy
12:55 PM 34.9 °F 25.3 °F 26.8 °F 72% 29.49 in 10.0 mi WNW 15.0 mph 19.6 mph N/A   Scattered Clouds
1:15 PM 35.4 °F 27.8 °F 27.0 °F 71% 29.49 in 10.0 mi West 10.4 mph 16.1 mph N/A   Clear
1:35 PM 35.6 °F 27.5 °F 27.0 °F 71% 29.49 in 10.0 mi West 11.5 mph 19.6 mph N/A   Clear
1:55 PM 36.5 °F 29.2 °F 27.5 °F 70% 29.49 in 10.0 mi West 10.4 mph - N/A   Clear
2:15 PM 37.6 °F 31.0 °F 28.0 °F 68% 29.49 in 10.0 mi West 9.2 mph 16.1 mph N/A   Clear
2:35 PM 39.4 °F 31.1 °F 27.7 °F 63% 29.49 in 10.0 mi West 15.0 mph 18.4 mph N/A   Clear
2:55 PM 40.3 °F 34.4 °F 26.6 °F 58% 29.49 in 10.0 mi West 9.2 mph 18.4 mph N/A   Clear
3:15 PM 40.3 °F 31.9 °F 27.0 °F 59% 29.50 in 10.0 mi WSW 16.1 mph 23.0 mph N/A   Scattered Clouds
3:35 PM 38.5 °F 31.1 °F 24.4 °F 57% 29.52 in 10.0 mi West 11.5 mph 20.7 mph N/A   Mostly Cloudy
3:55 PM 37.9 °F 30.9 °F 23.9 °F 57% 29.51 in 10.0 mi WSW 10.4 mph 17.3 mph N/A   Overcast
4:15 PM 37.9 °F 32.7 °F 23.9 °F 57% 29.50 in 10.0 mi WSW 6.9 mph - N/A   Overcast
4:35 PM 37.9 °F 32.7 °F 23.5 °F 56% 29.50 in 10.0 mi WSW 6.9 mph - N/A   Overcast
4:55 PM 36.9 °F 34.3 °F 24.6 °F 61% 29.49 in 10.0 mi SW 3.5 mph - N/A   Overcast
5:15 PM 36.1 °F 33.5 °F 24.8 °F 63% 29.48 in 10.0 mi SSW 3.5 mph - N/A   Overcast
5:35 PM 36.3 °F - 25.2 °F 64% 29.47 in 10.0 mi Calm Calm - N/A   Overcast
5:55 PM 36.5 °F - 25.0 °F 63% 29.47 in 10.0 mi Calm Calm - N/A   Overcast
6:15 PM 36.5 °F 28.7 °F 27.0 °F 68% 29.51 in 7.0 mi NNW 11.5 mph - N/A Snow Light Snow
6:35 PM 30.9 °F 18.1 °F 28.2 °F 90% 29.55 in 2.0 mi NNW 21.9 mph 29.9 mph N/A Snow Light Snow
6:55 PM 28.6 °F 15.3 °F 24.3 °F 84% 29.62 in 5.0 mi NW 20.7 mph 35.7 mph N/A Rain Light Freezing Rain
7:15 PM 26.4 °F 12.1 °F 23.9 °F 90% 29.63 in 1.0 mi NW 21.9 mph 33.4 mph N/A Snow Snow
7:35 PM 24.8 °F 8.1 °F 22.8 °F 92% 29.66 in 0.8 mi NW 28.8 mph 46.0 mph N/A Snow Snow
7:55 PM 20.3 °F 4.8 °F 18.3 °F 92% 29.71 in 1.2 mi NNW 19.6 mph 26.5 mph N/A Snow Light Snow
8:15 PM 19.0 °F 2.0 °F 15.1 °F 85% 29.74 in 2.5 mi NW 23.0 mph 29.9 mph N/A Snow Light Snow
8:35 PM 15.8 °F -1.1 °F 8.8 °F 74% 29.79 in 2.0 mi NNW 19.6 mph 36.8 mph N/A   Overcast
8:55 PM 15.1 °F -2.5 °F 7.7 °F 73% 29.82 in 10.0 mi NW 20.7 mph 29.9 mph N/A   Overcast
9:15 PM 13.3 °F -4.8 °F 3.4 °F 65% 29.83 in 7.0 mi NW 20.7 mph 38.0 mph N/A   Overcast
9:35 PM 13.5 °F -1.5 °F 2.8 °F 63% 29.85 in 10.0 mi WNW 13.8 mph 32.2 mph N/A   Overcast
9:55 PM 10.6 °F -11.8 °F 1.4 °F 67% 29.87 in 3.0 mi NW 31.1 mph 40.3 mph N/A Snow Light Snow
10:15 PM 8.6 °F -14.5 °F -0.4 °F 67% 29.89 in 1.0 mi WNW 31.1 mph 56.4 mph N/A Snow Light Snow
10:35 PM 8.4 °F -12.1 °F -1.8 °F 63% 29.93 in 2.0 mi WNW 23.0 mph 42.6 mph N/A Snow Light Snow
10:55 PM 7.2 °F -16.4 °F -1.7 °F 67% 29.95 in 5.0 mi NW 31.1 mph 41.4 mph N/A   Haze
11:15 PM 6.4 °F -15.2 °F -3.3 °F 64% 29.98 in 10.0 mi WNW 24.2 mph 39.1 mph N/A   Scattered Clouds
11:35 PM 4.8 °F -17.7 °F -5.8 °F 62% 29.99 in 10.0 mi WNW 25.3 mph 35.7 mph N/A   Clear
11:55 PM 4.1 °F -19.5 °F -3.6 °F 70% 30.01 in 7.0 mi WNW 27.6 mph 33.4 mph N/A   Scattered Clouds